Regional Weather Roundup
Issued by NWS Grand Forks, ND

Home | Current Version | Previous Version | Text Only | Print | Product List | Glossary On
Versions: 1 2 3 4 5 6 7 8 9 10 11 12 13 14 15 16 17 18 19 20 21 22 23 24 25 26 27 28 29 30 31 32 33 34 35 36 37 38 39 40 41 42 43 44 45 46 47 48 49 50
000
ASUS43 KFGF 250131
RWRFGF
PRAIRIE TO PINES  WEATHER ROUNDUP
NATIONAL WEATHER SERVICE EASTERN NORTH DAKOTA/GRAND FORKS ND
700 PM CST FRI FEB 24 2017

 **SATELLITE DATA USED TO AUGMENT SKY COVER AT AUTOMATED STATIONS**
 *****  WEATHER ACROSS EASTERN NORTH DAKOTA  *****

CITY           SKY/WX    TMP DP  RH WIND       PRES   REMARKS
GRAND FORKS    FAIR      17   9  70 N8        30.12F WCI   7
GRAND FRKS AFB FAIR      16  10  76 VRB7      30.13R WCI   6
DEVILS LAKE    FAIR      18  13  80 NW6       30.10F WCI  10
FARGO          FAIR      20  12  71 N18       30.09S WCI   5
WAHPETON ARPT  MOCLDY    21  12  68 NW21      30.08R WCI   6
$$

 ***** WEATHER ACROSS CENTRAL AND WESTERN NORTH DAKOTA  *****

CITY           SKY/WX    TMP DP  RH WIND       PRES   REMARKS
BISMARCK       CLOUDY    27  16  63 NW5       30.12S WCI  22
MINOT          CLOUDY    26  19  74 CALM      30.08S
JAMESTOWN      FAIR      21  15  78 NW12      30.09R WCI   9
MINOT AFB      FAIR      22  17  79 S5        30.07F WCI  16
GARRISON         N/A     22  15  75 W3        30.09S
WILLISTON      MOCLDY    23  14  68 CALM      30.09S
DICKINSON      CLOUDY    21  15  78 SW3       30.04F
HETTINGER      CLOUDY    24  17  74 E5        30.07S WCI  18
$$

 *****  OTHER AIRPORT OBSERVATIONS IN OUR AREA  *****

CITY           SKY/WX    TMP DP  RH WIND       PRES   REMARKS
WALHALLA       NOT AVBL
GRAFTON AIRPOR FAIR      16  12  86 N6        30.15S WCI   7
VALLEY CITY AR FAIR      19  16  86 N10       30.11S WCI   8
CANDO          NOT AVBL
CAVALIER APRT    N/A     12   9  85 W3        30.13F
GWINNER        MOCLDY    23  18  80 NW13      30.10R WCI  11
SHEYENNE NWR     N/A     22  14  71 N9        29.95S WCI  12
ROLLA          FAIR      14  10  85 CALM      30.07F
 ***** THE ABOVE OBSERVATIONS ARE NON NWS ARE NOT QUALITY
       CONTROLLED AND MAY MIS-REPORT RAIN FOR SNOW...
$$

  *****  WEATHER ACROSS NORTHERN MINNESOTA  *****

CITY           SKY/WX    TMP DP  RH WIND       PRES   REMARKS
FLAG ISLAND    FAIR      12   3  67 NW15      30.03R WCI  -4
WARROAD        FAIR      12   5  73 NW13      30.05R WCI  -3
ROSEAU         FAIR      12   5  73 NW12      30.06S WCI  -2
HALLOCK        FAIR      14  10  85 NW7       30.12S WCI   4
THF RVR FALLS  FAIR      14   9  80 NW15      30.08R WCI  -1
BAUDETTE       FAIR      12   2  64 NW8       30.00R WCI   0
WASKISH        FAIR      14   5  67 N7        30.00R WCI   4
CROOKSTON      FAIR      16  10  79 N16       30.12R WCI   0
STEPHEN NDAWN    N/A     14  10  85 NW8         N/A  WCI   3
GREENBUSH NDAW   N/A      9   3  78 NW3         N/A
$$
  *****  WEATHER ACROSS CENTRAL AND WEST MINNESOTA  *****

CITY           SKY/WX    TMP DP  RH WIND       PRES   REMARKS
FOSSTON        FAIR      14   9  79 NW12      30.04R WCI   0
BEMIDJI        FAIR      15   6  68 NW12G18   29.97S WCI   2
PARK RAPIDS    FAIR      18   6  59 NW15      29.95R WCI   4
ELBOW LAKE     FAIR      19  13  79 NW18G25   30.02S WCI   3
WADENA         FAIR      18   9  68 N18G26    29.96S WCI   2
DETROIT LAKES  FAIR      19  12  73 N18G25    30.02S WCI   4
MOORHEAD       FAIR      19  12  73 N22       30.09S WCI   3
FERGUS FALLS   FAIR      18  12  79 N18G30    30.09R WCI   2
MORRIS MN      FAIR      21  14  73 N23G32    30.01R WCI   5
STAPLES        FAIR      19   7  58 NW17      29.95R WCI   4
$$
  *****  WEATHER ELSEWHERE ACROSS MINNESOTA  *****

CITY           SKY/WX    TMP DP  RH WIND       PRES   REMARKS
DULUTH         FAIR      18   8  65 N10       29.85R WCI   6
INTRNTL FALLS  FAIR      16   3  56 N13       29.96S WCI   2
ELY            FAIR      16   1  53 NW8       29.86F WCI   5
CLOQUET        FAIR      18   9  68 N9        29.86S WCI   6
WHEATON        MOCLDY    21  12  68 N18G26    30.08R WCI   6
BRAINERD       FAIR      19   8  62 N14       29.93R WCI   6
HIBBING        FAIR      15   3  59 N13       29.89R WCI   1
ALEXANDRIA     FAIR      21  11  65 NW17G24   29.96R WCI   7
SAINT CLOUD    FAIR      22   9  57 N16G23    29.91R WCI   8
MINNEAPOLIS    MOCLDY    24  11  57 N18       29.87R WCI  10
$$

  *****  WEATHER ACROSS SOUTH DAKOTA  *****

CITY           SKY/WX    TMP DP  RH WIND       PRES   REMARKS
SIOUX FALLS    CLOUDY    24  15  68 N22G32    29.99R WCI   9
BROOKINGS      FLURRIES  22  14  71 N20G28    29.99R WCI   7
WATERTOWN      FAIR      20  12  71 N24       30.01R WCI   3
HURON          FAIR      25  16  68 N16       30.08R WCI  12
SISSETON         N/A     22  15  75 N20       30.06R WCI   7
ABERDEEN       FAIR      22  14  71 N12       30.11R WCI  10
MITCHELL       FAIR      28  17  63 N15       30.07R WCI  16
PIERRE         FAIR      24  12  60 N7        30.11R WCI  16
MOBRIDGE       FAIR      23  13  65 MISG      30.09S
RAPID CITY     CLOUDY    20  14  77 S5        30.06S WCI  13
$$

  *****  SOME WEATHER IN NEARBY STATES *****

CITY           SKY/WX    TMP DP  RH WIND       PRES   REMARKS
GLASGOW MT     CLOUDY    28  27  96 S3        30.04S FOG
GREAT FALLS MT FAIR      26  13  57 N5        30.02R WCI  20
CHEYENNE WY    FAIR      14   8  77 SW7       29.95R WCI   4
SCOTTSBLUFF NE FAIR      19  14  81 CALM      30.05S
OMAHA NE       MOCLDY    25  16  68 NW15      29.98R WCI  13
DES MOINES IA  LGT SNOW  24  21  88 NW14G25   29.85R VSB 3/4 WCI  12
DAVENPORT IA   LGT SNOW  31  30  96 N13       29.65R FOG     WCI  21
CHICAGO IL     DRIZZLE   39  36  89 W9        29.53S FOG
EAU CLAIRE WI  LGT SNOW  20  15  81 N13       29.79R WCI   7
LA CROSSE WI   LGT SNOW  25  21  85 N21       29.74R FOG     WCI  11
$$

  *****  SOME NATIONAL WEATHER *****

CITY           SKY/WX    TMP DP  RH WIND       PRES   REMARKS
LA GUARDIA NY  FAIR      58  52  80 S13       29.85F
RALEIGH NC     FAIR      66  53  63 SE5       29.83S
ATLANTA GA     FAIR      71  53  52 S7        29.80R
NEW ORLEANS LA FAIR      70  62  76 S9        29.79S
OKLAHOMA CITY  FAIR      43  22  43 N24G32    30.03R
ALBUQUERQUE NM FAIR      44  -2  14 W14G24    29.96R
SALT LAKE CITY FAIR      31  14  49 W3        30.12R
LOS ANGELES CA FAIR      55  38  52 W15       30.14S
BOISE ID       FAIR      34  13  41 W5        30.14R
SEATTLE WA     FAIR      45  28  51 W3        30.16S
$$

*** WEATHER ACROSS MANITOBA...SASKATCHEWAN AND ONTARIO ***
                ***ONTARIO***

CITY           SKY/WX    TMP DP  RH WIND       PRES   REMARKS
GERALDTON      PTCLDY     9   3  78 NE7       29.89F WCI  -3
THUNDER BAY    MOCLDY    14   3  62 N7G18     29.89F WCI   4
SIOUX LOOKOUT  MOCLDY     9   3  78 N3        29.96S
TORONTO        CLOUDY    39  37  93 SE9       29.61R FOG
BIG TROUT LK   CLEAR      1  -8  66 NE6       30.09F WCI -10
PICKLE LAKE    PTCLDY     9   1  72 N3        29.97S
DRYDEN         CLEAR      9   1  72 NW7       29.97S WCI  -3
KENORA         PTCLDY     9   1  72 N5        30.00S WCI   0
$$
                *** MANITOBA***

CITY           SKY/WX    TMP DP  RH WIND       PRES   REMARKS
BRANDON        MOCLDY    19  12  73 SW8       30.08F WCI   9
DAUPHIN        CLEAR     21  14  73 W6        30.06S WCI  14
ISLAND LAKE    LGT SNOW   3  -2  78 W2        30.09F
PILOT MOUND      N/A     16  10  79 W3          N/A
THE PAS        MOCLDY    10   1  67 NE3       30.08F
THOMPSON       PTCLDY    -6 -13  71 CALM      30.11S
WINNIPEG       CLEAR     12   7  79 W6        30.12S WCI   3
LYNN LAKE      MOCLDY     0  -4  85 NW6       30.06F WCI -12
CHURCHILL      MOCLDY    -4  -9  77 S7        30.20F WCI -18
GILLAM         PTCLDY    -4  -9  77 E5        30.16F WCI -15
$$
                ***SASKATCHEWAN***

CITY           SKY/WX    TMP DP  RH WIND       PRES   REMARKS
ESTEVAN        PTCLDY    19  14  79 SW8       30.05F WCI   9
KINDERSLEY     CLOUDY    19  14  79 NW12G18   30.09S WCI   7
LLOYDMINSTER   PTCLDY     7   1  78 NW9       30.14S WCI  -7
PRINCE ALBERT  MOCLDY    14   5  67 NW10      30.10R WCI   1
REGINA         PTCLDY    21  19  93 W6        30.02F WCI  14
YORKTON        FLURRIES  21  19  93 W6        30.02F WCI  14
N. BATTLEFORD  CLEAR     12   7  79 NW12      30.15R WCI  -2
LA RONGE       MOCLDY     7  -2  66 W14G20    30.13S WCI -10
SASKATOON      FLURRIES  21  16  79 N13       30.09R WCI   9
SWIFT CURRENT  PTCLDY    21  18  86 NW8       30.02R WCI  12
$$
NOTE: THESE ARE AUTOMATED STATIONS WITH LIMITED QUALITY CONTROL
      "FAIR" INDICATES FEW OR NO CLOUDS BELOW 12,000 FEET WITH NO
      SIGNIFICANT WEATHER AND/OR OBSTRUCTIONS TO VISIBILITY.
      SKY/WX - SKY CONDITION AND SIGNIFICANT WEATHER.
      TMP - AIR TEMPERATURE.    DP   - DEWPOINT TEMPERATURE.
      RH  - RELATIVE HUMIDITY.  PRES - PRESSURE.
      HX  - HEAT INDEX.         WCI  - WIND CHILL INDEX.
$




USA.gov is the U.S. government's official web portal to all federal, state and local government web resources and services.